SCP
-0 -0 0 0 0 0 0 0 0 0 0 0 0 0 0 0 0 0 0 0 0 0 0 0 0 0 0 0 0 0 0 0 0 0 0 0 0 0
0 0 0 0 0 0 0 0 0 0 0 0 0 0 0 0 0 0 0 0 0 0 0 0 0 0 0 0 0 0 0 0 0 0 0 0 0 0
0 0 0 0 -0 -0 -0 -0 0 0 0 0 0 0 0 0 0 0 0 0 0 0 0 0 0 0 0 0 0 0 0 0 0 0 0 0 0 0
0 0 0 0 -0 -0 0 0 0 0 0 0 0 0 0 0 0 0 0 0 0 0 0 0 0 0 0 0 0 0 0 0 0 0 0 0 0 0
0 0 0 0 -0 -0 -0 -0 0 0 0 0 0 0 0 0 0 0 0 0 0 0 0 0 0 0 0 0 0 0 0 0 0 0 0 0 0 0
0 0 0 0 0 0 0 0 0 0 0 0 0 0 0 0 0 0 0 0 0 0 0 0 0 0 0 0 0 0 0 0 0 0 0 0 0 0
0 0 0 0 -0 0 0 0 0 0 0 0 0 0 0 0 0 0 0 0 0 0 0 0 0 0 0 0 0 0 0 0 0 0 0 0 0 0
0 0 0 0 0 0 0 0 0 0 0 0 0 0 0 0 0 0 0 0 0 0 0 0 0 0 0 0 0 0 0 0 0 0 0 0 0 0
0 0 0 0 0 0 0 0 0 0 0 0 0 0 0 0 0 0 0 0 0 0 0 0 0 0 0 0 0 0 0 0 0 0 0 0 0 0
0 0 0 0 0 0 0 0 0 0 0 0 0 0 0 0 0 0 0 0 0 0 0 0 0 0 0 0 0 0 0 0 0 0 0 0 0 0
0 0 0 0 0 0 0 0 0 0 0 0 0 0 0 0 0 0 0 0 0 0 0 0 0 0 0 0 0 0 0 0 0 0 0 0 0 0
0 0 0 0 0 0 0 0 0 0 0 0 0 0 0 0 0 0 0 0 0 0 0 0 0 0 0 0 0 0 0 -0 0 0 0 0 0 0
0 0 0 0 0 0 0 0 0 0 0 0 0 0 0 0 0 0 0 0 0 0 0 0 0 0 0 0 0 0 -0 -0 -0 0 -0 -0 0 0
0 0 0 0 0 0 0 0 0 0 0 0 0 0 0 0 0 0 0 0 0 0 0 0 0 0 0 0 0 0 -0 -0 0 0 -0 -0 -0 -0
0 0 0 0 0 0 0 0 0 0 0 0 0 0 0 0 0 0 0 0 0 0 0 0 0 0 0 0 0 0 0 0 0 0 0 0 0 0
0 0 0 0 0 0 0 0 0 0 0 0 0 0 0 0 0 0 0 0 0 0 0 0 0 0 0 0 0 0 0 0 0 0 0 0 0 0
0 0 0 0 0 0 0 0 0 0 0 0 0 0 0 0 0 0 0 0 0 0 0 0 0 0 0 0 0 0 0 0 0 0 0 0 0 0
0 0 0 0 0 0 0 0 0 0 0 0 0 0 0 0 0 0 0 0 0 0 0 0 0 0 0 0 0 0 0 0 0 0 0 0 0 -0
0 0 0 0 0 0 0 0 0 0 0 0 0 0 0 0 0 0 0 0 0 0 0 0 0 0 0 0 0 0 0 0 0 0 0 0 0 0
0 0 0 0 0 0 0 0 0 0 0 0 0 0 0 0 0 0 0 0 0 0 0 0 0 0 0 0 0 0 0 0 0 0 0 0 0 0
0 0 0 0 0 0 0 0 0 0 0 0 0 0 0 0 0 0 0 0 0 0 0 0 0 0 0 0 0 0 0 0 0 0 0 0 0 0
0 0 -0 0 0 0 0 0 0 0 0 0 0 0 0 0 0 0 0 0 0 0 0 0 0 0 0 0 0 0 0 0 0 0 0 0 0 0
0 0 0 -0 -0 0 0 0 0 0 0 0 0 0 0 0 0 0 0 0 0 0 0 0 0 0 0 0 0 0 0 0 0 0 0 0 0 0
Wind_Speed_500mb
12 15 19 24 31 31 22 20 29 17 18 18 19 23 20 19 19 21 26 32 34 33 32 32 31 31 32 30 28 32 33 32 34 36 37 38 39 42
7 7 12 25 28 30 25 20 15 28 13 27 26 28 23 20 18 24 28 27 15 17 19 21 21 17 15 17 18 20 20 20 19 20 21 19 15 17
7 7 4 16 24 26 23 21 21 26 31 23 24 28 24 19 19 17 11 10 11 11 10 11 15 16 17 16 13 12 14 14 16 17 17 16 15 12
18 15 14 17 21 20 17 18 19 25 29 33 29 26 21 16 11 9 7 9 8 10 11 12 17 19 18 16 14 12 12 12 10 11 8 10 18 22
18 13 17 16 17 15 14 13 14 17 24 26 28 26 16 16 15 13 13 9 10 10 11 11 13 12 15 15 14 8 8 11 13 13 9 7 6 5
21 18 19 16 14 11 9 9 8 9 10 13 25 24 19 20 17 15 10 6 5 4 7 7 5 6 8 9 8 6 5 4 4 3 3 2 2 2
26 25 25 22 20 17 15 18 15 13 14 15 19 19 15 17 14 10 8 5 1 2 6 3 3 6 8 8 7 6 6 7 7 6 6 7 9 11
26 25 24 24 22 18 19 16 15 14 11 10 8 9 8 10 10 10 6 5 7 4 3 2 3 5 4 4 5 7 8 9 11 12 13 13 13 12
21 23 22 23 22 20 17 13 12 11 8 12 10 7 8 9 7 9 9 9 8 9 7 4 5 3 3 3 2 4 7 9 9 9 8 7 6 7
17 19 18 18 18 17 14 9 9 9 11 11 15 9 3 2 6 8 9 9 9 7 2 3 7 8 8 6 4 5 5 4 4 4 3 3 4 6
11 12 12 13 15 18 13 10 9 10 14 13 13 13 10 5 2 4 4 8 11 7 2 5 4 3 6 6 2 3 4 4 5 5 7 6 5 10
18 13 11 10 10 10 11 8 4 11 13 12 10 10 12 17 14 10 15 16 16 11 8 8 7 4 3 4 2 4 6 8 13 9 6 7 8 6
13 14 9 10 10 8 6 5 5 3 3 5 7 8 17 23 16 7 9 13 13 20 18 17 13 13 11 9 9 7 9 16 14 8 5 6 7 9
9 11 6 4 5 6 5 3 3 6 7 6 2 6 15 11 9 8 8 8 4 7 12 14 16 17 21 17 20 18 14 17 15 8 4 7 7 6
6 2 5 10 10 9 7 8 10 8 4 2 3 9 11 9 10 10 8 7 5 5 6 5 10 12 18 24 25 25 23 18 16 16 11 14 11 9
9 14 15 15 14 12 15 18 16 9 7 9 10 10 10 9 9 16 11 10 11 10 5 8 11 13 13 16 20 23 20 21 20 23 16 19 22 18
18 14 10 6 3 3 6 8 9 10 12 16 20 19 15 12 11 12 12 11 11 9 11 9 8 8 14 12 13 16 17 20 24 23 23 12 18 19
14 9 7 9 12 11 8 10 9 10 15 20 22 19 14 12 11 11 12 9 7 9 10 12 14 13 15 18 20 21 23 21 18 26 25 21 13 14
12 11 7 3 9 15 18 16 15 17 21 24 18 14 17 15 14 14 14 13 12 10 8 18 24 23 20 20 15 17 27 30 22 20 31 34 31 22
10 8 6 5 6 9 13 16 15 18 23 26 16 16 19 18 15 15 13 14 15 18 20 21 22 25 31 28 24 24 31 34 31 23 22 30 38 37
9 7 8 9 10 12 14 14 15 21 24 23 21 16 21 16 13 16 18 17 21 23 24 22 21 22 21 25 28 29 32 33 37 32 28 24 19 23
3 2 6 8 8 13 15 15 16 20 20 23 23 17 15 15 16 21 22 23 22 23 27 26 26 26 26 27 33 32 25 14 20 24 29 33 33 30
9 8 8 10 9 16 21 17 15 16 20 22 22 19 15 17 21 28 27 24 26 27 30 32 31 33 32 29 30 33 39 31 31 32 31 35 39 36
Wind_Direction_500mb
211 208 212 209 212 222 231 222 227 197 196 211 199 205 235 255 246 240 258 275 280 284 287 287 287 285 285 282 278 278 283 283 281 280 276 271 269 274
181 195 223 217 209 212 218 221 228 210 200 218 205 224 237 239 247 263 274 280 288 291 298 298 297 289 287 280 281 283 282 286 289 290 287 278 274 281
142 179 99 179 190 199 217 224 225 216 227 228 228 225 232 254 270 274 270 271 261 269 287 313 324 334 330 316 309 307 300 305 311 310 300 294 298 298
88 97 130 143 171 188 211 228 234 228 232 233 221 220 229 229 248 242 218 206 216 261 293 319 331 336 339 331 315 316 326 344 1 28 46 93 121 107
86 107 114 128 149 163 183 202 215 227 236 238 215 212 210 213 213 209 216 244 290 300 307 323 338 360 7 20 46 58 55 66 75 87 101 85 77 96
78 87 96 106 115 134 162 171 177 189 187 202 209 204 215 195 204 224 226 271 284 360 348 347 3 32 40 28 26 21 30 30 28 25 352 8 21 42
76 80 85 87 91 91 101 105 102 121 142 165 180 190 192 219 217 243 234 216 211 12 328 306 348 356 354 11 21 34 47 45 52 61 74 89 103 99
66 64 71 77 80 88 94 94 101 104 127 154 181 199 211 234 263 262 235 237 299 250 267 277 22 353 11 356 41 66 75 86 93 97 103 107 100 88
70 68 66 68 67 67 73 77 84 90 121 137 159 204 237 258 253 215 220 262 269 192 200 204 181 246 293 303 304 124 121 111 107 111 106 96 81 69
68 68 58 58 63 62 59 70 90 95 91 101 115 132 151 237 217 227 240 240 201 190 214 310 255 230 225 223 199 182 167 134 128 113 72 13 27 98
52 56 59 52 58 60 50 60 88 102 105 101 99 87 66 28 303 269 301 279 275 256 347 339 326 179 170 165 184 206 215 200 163 114 73 57 105 128
51 32 22 26 30 35 29 41 94 112 106 97 82 64 45 17 3 272 269 279 264 243 299 286 259 223 224 227 184 130 142 154 138 98 72 82 129 148
26 17 5 352 350 3 22 104 144 133 69 20 2 13 8 359 360 339 279 270 247 257 271 264 263 247 250 232 201 176 157 167 157 109 102 135 129 136
348 338 6 42 52 45 36 36 349 316 302 285 340 356 0 8 9 23 39 46 28 283 269 256 270 280 255 248 229 217 193 187 200 199 194 208 186 165
273 119 78 93 79 57 43 27 25 21 70 137 330 332 342 1 358 329 302 290 294 342 347 258 247 265 257 269 264 237 225 224 223 227 230 229 212 212
162 132 120 113 101 77 60 52 46 35 11 349 336 321 297 290 305 340 299 296 286 262 277 330 290 257 255 261 251 248 238 237 259 247 242 246 236 240
154 146 136 96 61 26 18 15 16 14 3 357 346 332 310 290 283 293 313 289 289 258 255 275 307 312 256 248 257 271 261 254 252 244 227 266 250 248
170 178 134 62 34 26 4 350 334 324 328 338 345 344 325 305 308 297 283 301 299 273 259 257 280 292 282 273 268 266 271 267 261 244 238 239 249 243
173 159 146 66 32 37 30 25 16 4 349 339 322 324 338 315 308 306 307 308 306 297 312 268 266 272 288 295 315 302 285 272 281 272 255 250 257 252
180 200 219 276 314 354 356 359 359 356 350 356 331 300 308 300 301 324 315 318 303 307 310 315 292 274 277 282 288 309 303 267 261 274 286 272 263 261
218 248 278 293 299 316 326 334 339 342 346 347 344 293 315 309 292 305 316 320 308 307 306 305 310 315 296 275 272 303 318 259 256 271 271 278 288 285
152 70 33 22 355 356 338 317 318 337 346 349 340 321 295 302 308 310 308 303 305 313 314 305 306 308 303 289 275 292 313 272 267 279 263 264 268 279
244 271 315 336 338 350 354 356 341 341 345 345 338 328 324 287 296 306 295 297 298 302 305 302 299 299 298 296 288 284 286 280 277 277 273 269 265 269
Wind_Speed_850mb
12 15 19 24 31 31 22 20 29 17 18 18 19 23 20 19 19 21 26 32 34 33 32 32 31 31 32 30 28 32 33 32 34 36 37 38 39 42
7 7 12 25 28 30 25 20 15 28 13 27 26 28 23 20 18 24 28 27 15 17 19 21 21 17 15 17 18 20 20 20 19 20 21 19 15 17
7 7 4 16 24 26 23 21 21 26 31 23 24 28 24 19 19 17 11 10 11 11 10 11 15 16 17 16 13 12 14 14 16 17 17 16 15 12
18 15 14 17 21 20 17 18 19 25 29 33 29 26 21 16 11 9 7 9 8 10 11 12 17 19 18 16 14 12 12 12 10 11 8 10 18 22
18 13 17 16 17 15 14 13 14 17 24 26 28 26 16 16 15 13 13 9 10 10 11 11 13 12 15 15 14 8 8 11 13 13 9 7 6 5
21 18 19 16 14 11 9 9 8 9 10 13 25 24 19 20 17 15 10 6 5 4 7 7 5 6 8 9 8 6 5 4 4 3 3 2 2 2
26 25 25 22 20 17 15 18 15 13 14 15 19 19 15 17 14 10 8 5 1 2 6 3 3 6 8 8 7 6 6 7 7 6 6 7 9 11
26 25 24 24 22 18 19 16 15 14 11 10 8 9 8 10 10 10 6 5 7 4 3 2 3 5 4 4 5 7 8 9 11 12 13 13 13 12
21 23 22 23 22 20 17 13 12 11 8 12 10 7 8 9 7 9 9 9 8 9 7 4 5 3 3 3 2 4 7 9 9 9 8 7 6 7
17 19 18 18 18 17 14 9 9 9 11 11 15 9 3 2 6 8 9 9 9 7 2 3 7 8 8 6 4 5 5 4 4 4 3 3 4 6
11 12 12 13 15 18 13 10 9 10 14 13 13 13 10 5 2 4 4 8 11 7 2 5 4 3 6 6 2 3 4 4 5 5 7 6 5 10
18 13 11 10 10 10 11 8 4 11 13 12 10 10 12 17 14 10 15 16 16 11 8 8 7 4 3 4 2 4 6 8 13 9 6 7 8 6
13 14 9 10 10 8 6 5 5 3 3 5 7 8 17 23 16 7 9 13 13 20 18 17 13 13 11 9 9 7 9 16 14 8 5 6 7 9
9 11 6 4 5 6 5 3 3 6 7 6 2 6 15 11 9 8 8 8 4 7 12 14 16 17 21 17 20 18 14 17 15 8 4 7 7 6
6 2 5 10 10 9 7 8 10 8 4 2 3 9 11 9 10 10 8 7 5 5 6 5 10 12 18 24 25 25 23 18 16 16 11 14 11 9
9 14 15 15 14 12 15 18 16 9 7 9 10 10 10 9 9 16 11 10 11 10 5 8 11 13 13 16 20 23 20 21 20 23 16 19 22 18
18 14 10 6 3 3 6 8 9 10 12 16 20 19 15 12 11 12 12 11 11 9 11 9 8 8 14 12 13 16 17 20 24 23 23 12 18 19
14 9 7 9 12 11 8 10 9 10 15 20 22 19 14 12 11 11 12 9 7 9 10 12 14 13 15 18 20 21 23 21 18 26 25 21 13 14
12 11 7 3 9 15 18 16 15 17 21 24 18 14 17 15 14 14 14 13 12 10 8 18 24 23 20 20 15 17 27 30 22 20 31 34 31 22
10 8 6 5 6 9 13 16 15 18 23 26 16 16 19 18 15 15 13 14 15 18 20 21 22 25 31 28 24 24 31 34 31 23 22 30 38 37
9 7 8 9 10 12 14 14 15 21 24 23 21 16 21 16 13 16 18 17 21 23 24 22 21 22 21 25 28 29 32 33 37 32 28 24 19 23
3 2 6 8 8 13 15 15 16 20 20 23 23 17 15 15 16 21 22 23 22 23 27 26 26 26 26 27 33 32 25 14 20 24 29 33 33 30
9 8 8 10 9 16 21 17 15 16 20 22 22 19 15 17 21 28 27 24 26 27 30 32 31 33 32 29 30 33 39 31 31 32 31 35 39 36
Wind_Direction_850mb
211 208 212 209 212 222 231 222 227 197 196 211 199 205 235 255 246 240 258 275 280 284 287 287 287 285 285 282 278 278 283 283 281 280 276 271 269 274
181 195 223 217 209 212 218 221 228 210 200 218 205 224 237 239 247 263 274 280 288 291 298 298 297 289 287 280 281 283 282 286 289 290 287 278 274 281
142 179 99 179 190 199 217 224 225 216 227 228 228 225 232 254 270 274 270 271 261 269 287 313 324 334 330 316 309 307 300 305 311 310 300 294 298 298
88 97 130 143 171 188 211 228 234 228 232 233 221 220 229 229 248 242 218 206 216 261 293 319 331 336 339 331 315 316 326 344 1 28 46 93 121 107
86 107 114 128 149 163 183 202 215 227 236 238 215 212 210 213 213 209 216 244 290 300 307 323 338 360 7 20 46 58 55 66 75 87 101 85 77 96
78 87 96 106 115 134 162 171 177 189 187 202 209 204 215 195 204 224 226 271 284 360 348 347 3 32 40 28 26 21 30 30 28 25 352 8 21 42
76 80 85 87 91 91 101 105 102 121 142 165 180 190 192 219 217 243 234 216 211 12 328 306 348 356 354 11 21 34 47 45 52 61 74 89 103 99
66 64 71 77 80 88 94 94 101 104 127 154 181 199 211 234 263 262 235 237 299 250 267 277 22 353 11 356 41 66 75 86 93 97 103 107 100 88
70 68 66 68 67 67 73 77 84 90 121 137 159 204 237 258 253 215 220 262 269 192 200 204 181 246 293 303 304 124 121 111 107 111 106 96 81 69
68 68 58 58 63 62 59 70 90 95 91 101 115 132 151 237 217 227 240 240 201 190 214 310 255 230 225 223 199 182 167 134 128 113 72 13 27 98
52 56 59 52 58 60 50 60 88 102 105 101 99 87 66 28 303 269 301 279 275 256 347 339 326 179 170 165 184 206 215 200 163 114 73 57 105 128
51 32 22 26 30 35 29 41 94 112 106 97 82 64 45 17 3 272 269 279 264 243 299 286 259 223 224 227 184 130 142 154 138 98 72 82 129 148
26 17 5 352 350 3 22 104 144 133 69 20 2 13 8 359 360 339 279 270 247 257 271 264 263 247 250 232 201 176 157 167 157 109 102 135 129 136
348 338 6 42 52 45 36 36 349 316 302 285 340 356 0 8 9 23 39 46 28 283 269 256 270 280 255 248 229 217 193 187 200 199 194 208 186 165
273 119 78 93 79 57 43 27 25 21 70 137 330 332 342 1 358 329 302 290 294 342 347 258 247 265 257 269 264 237 225 224 223 227 230 229 212 212
162 132 120 113 101 77 60 52 46 35 11 349 336 321 297 290 305 340 299 296 286 262 277 330 290 257 255 261 251 248 238 237 259 247 242 246 236 240
154 146 136 96 61 26 18 15 16 14 3 357 346 332 310 290 283 293 313 289 289 258 255 275 307 312 256 248 257 271 261 254 252 244 227 266 250 248
170 178 134 62 34 26 4 350 334 324 328 338 345 344 325 305 308 297 283 301 299 273 259 257 280 292 282 273 268 266 271 267 261 244 238 239 249 243
173 159 146 66 32 37 30 25 16 4 349 339 322 324 338 315 308 306 307 308 306 297 312 268 266 272 288 295 315 302 285 272 281 272 255 250 257 252
180 200 219 276 314 354 356 359 359 356 350 356 331 300 308 300 301 324 315 318 303 307 310 315 292 274 277 282 288 309 303 267 261 274 286 272 263 261
218 248 278 293 299 316 326 334 339 342 346 347 344 293 315 309 292 305 316 320 308 307 306 305 310 315 296 275 272 303 318 259 256 271 271 278 288 285
152 70 33 22 355 356 338 317 318 337 346 349 340 321 295 302 308 310 308 303 305 313 314 305 306 308 303 289 275 292 313 272 267 279 263 264 268 279
244 271 315 336 338 350 354 356 341 341 345 345 338 328 324 287 296 306 295 297 298 302 305 302 299 299 298 296 288 284 286 280 277 277 273 269 265 269